HOTSAT-1

导读 | 豆包AI

HOTSAT-1是一颗由英国(代码GB)于北京时间2023年6月12日08:00发射的人造卫星。作为英国近年航天发射活动的组成部分,该卫星旨在服务特定空间任务需求,发射后进入预定轨道开展工作。截至2026年3月,卫星已在轨运行约2年9个月,持续完成既定空间探测或对地观测等相关任务,是英国商业航天发展进程中的一颗典型微小卫星。

Basic Information
目录编号:
56954
目录名称:
HOTSAT-1
国际标识:
2023-084Y
轨道中心:
EARTH
卫星名称:
HOTSAT-1
卫星全名:
--
卫星状态:
在轨 (已飞行1053 天)
发射日期:
2023-06-12 UTC
国别 :
英国 (GB)
星等 :
--
Orbit Information
数据来源 国际轨道数据
星历时间: 2026-04-30T23:33:05+0800
8小时前
查看轨道信息
半长轴: 6876.293km
偏心率: 0.0002684
轨道倾角: 97.616°
近地点辐角 102.579°
升交点赤经 254.353°
平近点角 257.575°
近地点: 496.31km
远地点: 500.002km
周期: 94.578分钟
每日圈数: 15.225489
Detailed Information
使用方式:
暂无
2D Orbit Map
3D Orbit Map
Orbit Altitude Analysis Chart
Orbit Inclination Analysis Chart
Orbit Comprehensive Analysis Chart
View Comprehensive Chart